[[{"header":{"parameterUnit":"m.s-1","parameterCategory":1,"la1":30.2992,"la2":30.254,"lo1":-89.0895,"lo2":-89.0443,"dy":0.0025,"dx":0.0025,"nx":19,"ny":19,"refTime":"2026-03-12T03:00:00:Z","depth":0,"parameterNumber":2,"parameterNumberName":"U-component_of_WINDS"},"data":[0,0,0,3.6431,3.6431,3.6402,3.6402,3.6389,3.6389,0,0,0,0,0,0,0,0,0,0,0,3.6454,3.6455,3.6431,3.6431,3.6402,3.6402,3.6389,3.6389,0,0,0,0,0,0,0,0,0,0,0,3.6454,3.6454,3.6455,3.6431,3.6403,3.6402,3.6389,3.6402,0,0,0,0,0,0,0,0,0,0,3.6425,3.6461,3.6454,3.6455,3.6431,3.6403,3.6402,3.6402,3.6401,3.6412,0,3.6426,0,3.6408,3.639,3.639,0,0,0,3.6419,3.6462,3.6442,3.6455,3.6431,3.6403,3.6412,3.6401,3.64,3.6411,3.6426,3.6425,3.6408,3.639,3.639,3.6497,3.6498,0,0,3.6421,3.6456,3.6442,3.6442,3.6448,3.6413,3.6411,3.64,3.6418,3.6426,3.6424,3.6408,3.639,3.639,3.6496,3.6497,0,0,0,3.6433,3.6458,3.6437,3.6443,3.6436,3.6412,3.641,3.6419,3.6409,3.6424,3.6407,3.639,3.639,3.6495,3.6496,3.6584,0,0,0,3.6434,3.6465,3.6438,3.646,3.6437,3.6427,3.643,3.641,3.6408,3.6408,3.639,3.639,3.6493,3.6495,3.6579,3.6618,0,0,0,3.6451,3.6467,3.6468,3.6462,3.6451,3.6426,3.6416,3.6409,3.6398,3.639,3.639,3.6493,3.6495,3.6574,3.6611,3.6658,0,0,0,3.6479,3.6543,3.647,3.6535,3.6452,3.6482,3.6416,3.6435,3.6438,3.639,3.6494,3.6496,3.6573,3.6606,3.6654,3.6705,3.673,0,0,3.6579,3.6556,3.6592,3.6526,3.6579,3.6483,3.6548,3.6515,3.6481,3.6493,3.6495,3.658,3.661,3.6658,3.6855,3.6875,0,0,0,3.6636,3.6663,3.6669,3.6675,3.6655,3.664,3.6595,3.6584,3.6594,3.6495,3.6609,3.6626,3.6652,3.6675,3.6692,3.6713,3.6508,3.6508,3.6508,3.6827,3.6783,3.6841,3.6795,3.6802,3.6758,3.6759,3.6737,3.6686,3.6715,3.6718,3.6844,3.6872,3.6884,3.6907,3.6741,3.6742,3.6742,3.6742,3.6971,3.7002,3.694,3.6973,3.6927,3.6954,3.6915,3.688,3.6899,3.6836,3.6857,3.6793,3.6907,3.6925,3.6748,3.6747,3.6746,3.6746,3.6745,3.7091,3.7098,3.7086,3.7094,3.7105,3.7056,3.7079,3.7035,3.6993,3.7014,3.7014,3.7012,3.7006,3.7017,3.7018,3.7018,3.7019,3.7019,3.7019,3.722,3.7204,3.7229,3.7217,3.7218,3.7213,3.7172,3.7171,3.7159,3.7125,3.7125,3.7075,3.6927,3.6891,3.7026,3.7025,3.7024,3.7023,3.7023,3.7382,3.734,3.7379,3.738,3.7364,3.738,3.7325,3.7328,3.7321,3.7334,3.7281,3.7179,3.7151,3.7137,3.7107,3.7289,3.7289,3.7289,3.7289,3.7484,3.7467,3.7499,3.7505,3.7505,3.7461,3.7508,3.748,3.7442,3.7436,3.7403,3.736,3.7348,3.7327,3.7309,3.7281,3.7503,3.7503,3.7503,3.7582,3.7564,3.7611,3.7577,3.7563,3.7551,3.7595,3.7605,3.7553,3.7511,3.743,3.7421,3.7351,3.733,3.7284,3.7257,3.7203,0,0]},{"header":{"parameterUnit":"m.s-1","parameterCategory":1,"la1":30.2992,"la2":30.254,"lo1":-89.0895,"lo2":-89.0443,"dy":0.0025,"dx":0.0025,"nx":19,"ny":19,"refTime":"2026-03-12T03:00:00:Z","depth":0,"parameterNumber":3,"parameterNumberName":"V-component_of_WINDS"},"data":[0,0,0,-9.4899,-9.49,-9.4944,-9.4944,-9.5029,-9.503,0,0,0,0,0,0,0,0,0,0,0,-9.4903,-9.4905,-9.4899,-9.49,-9.4944,-9.4944,-9.5029,-9.503,0,0,0,0,0,0,0,0,0,0,0,-9.4903,-9.4904,-9.4906,-9.49,-9.4944,-9.4944,-9.5028,-9.4985,0,0,0,0,0,0,0,0,0,0,-9.4938,-9.4959,-9.4904,-9.4906,-9.4901,-9.4944,-9.4944,-9.4982,-9.4988,-9.5022,0,-9.5057,0,-9.5045,-9.5038,-9.5038,0,0,0,-9.4886,-9.4955,-9.4951,-9.4906,-9.4901,-9.4944,-9.492,-9.4985,-9.4991,-9.5029,-9.5058,-9.506,-9.5047,-9.5038,-9.5039,-9.5285,-9.5287,0,0,-9.4884,-9.492,-9.4947,-9.4956,-9.4951,-9.4919,-9.4922,-9.4988,-9.5022,-9.5058,-9.5062,-9.5048,-9.5039,-9.504,-9.5283,-9.5285,0,0,0,-9.4886,-9.4919,-9.4913,-9.4953,-9.4959,-9.492,-9.4924,-9.5019,-9.5014,-9.5062,-9.5049,-9.504,-9.5041,-9.5281,-9.5284,-9.541,0,0,0,-9.4884,-9.492,-9.4913,-9.4935,-9.4958,-9.4989,-9.4953,-9.5009,-9.5015,-9.5049,-9.504,-9.5042,-9.5279,-9.5283,-9.5402,-9.5462,0,0,0,-9.4894,-9.4921,-9.4934,-9.4937,-9.4957,-9.4987,-9.4986,-9.501,-9.5008,-9.5038,-9.5042,-9.5278,-9.5282,-9.5395,-9.5451,-9.554,0,0,0,-9.4915,-9.5042,-9.4937,-9.5074,-9.4957,-9.5065,-9.4985,-9.5062,-9.5103,-9.504,-9.5279,-9.5284,-9.5393,-9.5444,-9.5533,-9.5622,-9.5662,0,0,-9.5096,-9.5065,-9.5143,-9.505,-9.5186,-9.5055,-9.521,-9.5211,-9.5179,-9.5252,-9.5257,-9.5404,-9.545,-9.5538,-9.5874,-9.5907,0,0,0,-9.5213,-9.5269,-9.5297,-9.5339,-9.5346,-9.5356,-9.5331,-9.5332,-9.5392,-9.5224,-9.5459,-9.5485,-9.5535,-9.5576,-9.5604,-9.5645,-9.5304,-9.5303,-9.5303,-9.5518,-9.5475,-9.5602,-9.5565,-9.5606,-9.5582,-9.5612,-9.5609,-9.5549,-9.5606,-9.5627,-9.5837,-9.5886,-9.5906,-9.595,-9.567,-9.567,-9.5671,-9.5671,-9.5779,-9.5854,-9.5777,-9.5872,-9.5826,-9.5905,-9.5888,-9.5844,-9.5912,-9.5816,-9.5858,-9.5757,-9.5943,-9.598,-9.568,-9.5678,-9.5677,-9.5676,-9.5676,-9.5975,-9.6003,-9.6005,-9.6065,-9.6116,-9.6073,-9.6144,-9.6097,-9.6054,-9.6096,-9.6115,-9.6113,-9.6106,-9.6108,-9.6109,-9.611,-9.6111,-9.6111,-9.6112,-9.6178,-9.6176,-9.6242,-9.6263,-9.6287,-9.6312,-9.6291,-9.6313,-9.6325,-9.6285,-9.6285,-9.6223,-9.597,-9.5908,-9.6123,-9.6121,-9.6119,-9.6118,-9.6117,-9.6459,-9.639,-9.6491,-9.6516,-9.6539,-9.6595,-9.6537,-9.6586,-9.6596,-9.6634,-9.6563,-9.6383,-9.6348,-9.6325,-9.6274,-9.6571,-9.6571,-9.6571,-9.6571,-9.6625,-9.6604,-9.67,-9.6743,-9.6778,-9.6738,-9.6856,-9.6844,-9.6819,-9.6823,-9.6774,-9.6702,-9.6681,-9.6658,-9.6629,-9.658,-9.6948,-9.6948,-9.6948,-9.6797,-9.6778,-9.6887,-9.6865,-9.6882,-9.6897,-9.7008,-9.706,-9.7016,-9.6963,-9.6827,-9.6811,-9.6693,-9.6657,-9.6599,-9.6554,-9.6464,0,0]}]]